Weather History for KAIA - May, 2013

Change the Weather History Date:

Friday, May 10, 2013

  Actual Average Record
Temperature  
Mean Temperature 55 °F 53 °F  
Max Temperature 73 °F 68 °F 90 °F (2012)
Min Temperature 37 °F 37 °F 21 °F (1909)
Degree Days  
Heating Degree Days 10 12  
Month to date heating degree days 188 141  
Since 1 July heating degree days 7018 7030  
Cooling Degree Days 0 0  
Month to date cooling degree days 0 0  
Year to date cooling degree days 0 0  
Growing Degree Days 5 (Base 50)    
Moisture  
Dew Point 39 °F    
Average Humidity 62    
Maximum Humidity 100    
Minimum Humidity 23    
Precipitation  
Precipitation 0.00 in 0.07 in 1.65 in (1942)
Month to date precipitation 0.47 0.81  
Year to date precipitation 3.29 3.67  
Sea Level Pressure  
Sea Level Pressure 30.13 in    
Wind  
Wind Speed 9 mph (NNW)    
Max Wind Speed 25 mph    
Max Gust Speed 35 mph    
Visibility 7 miles    
Events Fog    
T = Trace of Precipitation, MM = Missing Value Source: NWS Daily Summary

Daily Weather History Graph

Daily Weather History Graph

Search for Another Location

Airport or City:

Trip Planner

Search our weather history database for the weather conditions in past years. The results will help you decide how hot, cold, wet, or windy it might be!

Date:

Astronomy

May. 10, 2013 Rise Set
Actual Time 5:35 AM MDT 8:00 PM MDT
Civil Twilight 5:04 AM MDT 8:31 PM MDT
Nautical Twilight 4:25 AM MDT 9:10 PM MDT
Astronomical Twilight 3:41 AM MDT 9:54 PM MDT
Moon 6:01 AM MDT (5/10) 8:52 PM MDT (5/10)
Length of Visible Light 15h 27m
Length of Day
14h 24m
New Moon, 1% of the Moon is Illuminated
May 10
New Moon
May 17
First Quarter
May 24
Full
May 31
Last Quarter
Jun 8
New

Hourly Weather History & Observations

Time (MDT) Temp. Windchill Dew Point Humidity Pressure Visibility Wind Dir Wind Speed Gust Speed Precip Events Conditions
12:53 AM 50.0 °F - 46.9 °F 89% 30.11 in 10.0 mi Calm Calm - 0.00 in   Mostly Cloudy
1:53 AM 48.2 °F - 44.6 °F 87% 30.16 in 10.0 mi North 3.5 mph - N/A   Mostly Cloudy
2:53 AM 46.9 °F - 43.0 °F 86% 30.10 in 10.0 mi ENE 5.8 mph - N/A   Mostly Cloudy
3:53 AM 44.1 °F - 42.1 °F 93% 30.11 in 8.0 mi Calm Calm - N/A   Partly Cloudy
4:12 AM 42.8 °F - 42.8 °F 100% 30.16 in 1.8 mi Calm Calm - N/A   Clear
4:16 AM 42.8 °F - 42.8 °F 100% 30.16 in 1.0 mi Calm Calm - N/A   Clear
4:23 AM 39.2 °F - 37.4 °F 93% 30.16 in 0.5 mi Calm Calm - N/A Fog Fog
4:43 AM 39.2 °F - 39.2 °F 100% 30.16 in 1.2 mi Calm Calm - 0.01 in   Partly Cloudy
4:46 AM 39.2 °F - 39.2 °F 100% 30.16 in 0.8 mi Calm Calm - 0.01 in   Mist
4:53 AM 37.0 °F 34.5 °F 37.0 °F 100% 30.13 in 0.2 mi West 3.5 mph - 0.01 in Fog Fog
5:13 AM 39.2 °F 34.2 °F 37.4 °F 93% 30.16 in 1.5 mi WNW 6.9 mph - N/A   Scattered Clouds
5:15 AM 39.2 °F 35.0 °F 37.4 °F 93% 30.16 in 3.0 mi WNW 5.8 mph - N/A   Scattered Clouds
5:53 AM 37.4 °F 34.9 °F 37.4 °F 100% 30.16 in 4.0 mi WNW 3.5 mph - N/A   Clear
6:53 AM 42.8 °F 41.1 °F 42.8 °F 100% 30.17 in 5.0 mi West 3.5 mph - N/A   Mist
7:53 AM 48.9 °F - 45.0 °F 86% 30.13 in 10.0 mi NW 3.5 mph - N/A   Clear
8:53 AM 57.9 °F - 43.0 °F 58% 30.12 in 10.0 mi NW 9.2 mph - N/A   Clear
9:53 AM 60.1 °F - 44.1 °F 55% 30.12 in 10.0 mi WNW 9.2 mph - N/A   Clear
10:53 AM 62.6 °F - 42.8 °F 48% 30.16 in 10.0 mi Variable 4.6 mph 17.3 mph N/A   Partly Cloudy
11:53 AM 64.0 °F - 41.0 °F 43% 30.09 in 10.0 mi West 4.6 mph - N/A   Mostly Cloudy
12:53 PM 69.1 °F - 37.0 °F 31% 30.06 in 10.0 mi Variable 3.5 mph 17.3 mph N/A   Scattered Clouds
1:53 PM 72.0 °F - 36.0 °F 27% 30.05 in 10.0 mi NNW 15.0 mph 18.4 mph N/A   Partly Cloudy
2:53 PM 73.0 °F - 36.0 °F 26% 30.05 in 10.0 mi NNW 12.7 mph 19.6 mph N/A   Mostly Cloudy
3:53 PM 72.0 °F - 34.0 °F 25% 30.05 in 10.0 mi NNW 8.1 mph - N/A   Partly Cloudy
4:53 PM 72.0 °F - 34.0 °F 25% 30.06 in 10.0 mi North 21.9 mph 28.8 mph N/A   Scattered Clouds
5:53 PM 69.1 °F - 30.9 °F 24% 30.08 in 10.0 mi North 12.7 mph - N/A   Partly Cloudy
6:53 PM 68.0 °F - 30.9 °F 25% 30.09 in 10.0 mi North 10.4 mph - N/A   Clear
7:53 PM 61.0 °F - 37.9 °F 42% 30.14 in 10.0 mi NNE 24.2 mph 33.4 mph N/A   Mostly Cloudy
8:53 PM 57.0 °F - 39.9 °F 53% 30.17 in 10.0 mi North 11.5 mph - N/A   Mostly Cloudy
9:53 PM 55.9 °F - 41.0 °F 57% 30.19 in 10.0 mi North 10.4 mph - N/A   Mostly Cloudy
10:53 PM 51.1 °F - 41.0 °F 68% 30.22 in 10.0 mi North 10.4 mph - N/A   Clear
11:53 PM 48.9 °F - 39.9 °F 71% 30.25 in 10.0 mi North 11.5 mph - N/A   Clear